| time (UTC) | temp F | wind direction | speed MPH | gust MPH | rain 1hr in | rain 24hr in | rain mn in | humidity % | barometer mb |
| 20260503201004 | 51 | 121 | 8.0 | 14.0 | 0.00 | 0.00 | 0.00 | 49 | 992.2 |
| 20260503195005 | 51 | 121 | 8.0 | 14.0 | 0.00 | 0.00 | 0.00 | 49 | 992.2 |
| 20260503194004 | 51 | 121 | 8.0 | 14.0 | 0.00 | 0.00 | 0.00 | 49 | 992.2 |
| 20260503193004 | 51 | 121 | 8.0 | 14.0 | 0.00 | 0.00 | 0.00 | 49 | 992.2 |
| 20260503192004 | 51 | 121 | 8.0 | 14.0 | 0.00 | 0.00 | 0.00 | 49 | 992.2 |
| 20260503191004 | 51 | 121 | 8.0 | 14.0 | 0.00 | 0.00 | 0.00 | 49 | 992.2 |
| 20260503190004 | 51 | 121 | 8.0 | 14.0 | 0.00 | 0.00 | 0.00 | 49 | 992.2 |
| 20260503185004 | 51 | 121 | 8.0 | 14.0 | 0.00 | 0.00 | 0.00 | 49 | 992.2 |
| 20260503184005 | 51 | 121 | 8.0 | 14.0 | 0.00 | 0.00 | 0.00 | 49 | 992.2 |
| 20260503183006 | 51 | 121 | 8.0 | 14.0 | 0.00 | 0.00 | 0.00 | 49 | 992.2 |
| 20260503182006 | 51 | 121 | 8.0 | 14.0 | 0.00 | 0.00 | 0.00 | 49 | 992.2 |
| 20260503181004 | 51 | 121 | 8.0 | 14.0 | 0.00 | 0.00 | 0.00 | 49 | 992.2 |
| 20260503180004 | 51 | 121 | 8.0 | 14.0 | 0.00 | 0.00 | 0.00 | 49 | 992.2 |
| 20260503175005 | 51 | 121 | 8.0 | 14.0 | 0.00 | 0.00 | 0.00 | 49 | 992.2 |
| 20260503174003 | 51 | 121 | 8.0 | 14.0 | 0.00 | 0.00 | 0.00 | 49 | 992.2 |
| 20260503173004 | 51 | 122 | 6.0 | 15.0 | 0.00 | 0.00 | 0.00 | 51 | 992.4 |
| 20260503171007 | 52 | 209 | 6.0 | 15.0 | 0.00 | 0.00 | 0.00 | 52 | 992.1 |
| 20260503151004 | 50 | 144 | 3.0 | 12.0 | 0.00 | 0.00 | 0.00 | 58 | 993.3 |
| 20260503131004 | 45 | 210 | 6.0 | 12.0 | 0.00 | 0.00 | 0.00 | 77 | 993.5 |
| 20260503081007 | 33 | 267 | 0.0 | 1.0 | 0.00 | 0.00 | 0.00 | 84 | 994.2 |
| 20260503072004 | 35 | 267 | 1.0 | 3.0 | 0.00 | 0.00 | 0.00 | 84 | 993.9 |
| 20260503071004 | 35 | 268 | 0.0 | 2.0 | 0.00 | 0.00 | 0.00 | 86 | 993.9 |
| 20260503055005 | 34 | 270 | 0.0 | 0.0 | 0.00 | 0.00 | 0.00 | 83 | 994.4 |
| 20260503054004 | 35 | 270 | 0.0 | 0.0 | 0.00 | 0.00 | 0.00 | 82 | 994.4 |
| 20260503053006 | 35 | 270 | 0.0 | 0.0 | 0.00 | 0.00 | 0.00 | 81 | 994.4 |
| 20260503052004 | 35 | 270 | 0.0 | 0.0 | 0.00 | 0.00 | 0.00 | 79 | 994.5 |
| 20260503051004 | 36 | 270 | 0.0 | 0.0 | 0.00 | 0.00 | 0.00 | 78 | 994.7 |
| 20260503050006 | 37 | 270 | 0.0 | 1.0 | 0.00 | 0.00 | 0.00 | 78 | 994.7 |
| 20260503045004 | 37 | 270 | 0.0 | 0.0 | 0.00 | 0.00 | 0.00 | 78 | 994.7 |
| 20260503044004 | 37 | 270 | 0.0 | 1.0 | 0.00 | 0.00 | 0.00 | 77 | 994.8 |
| 20260503043003 | 38 | 270 | 0.0 | 0.0 | 0.00 | 0.00 | 0.00 | 77 | 994.6 |
| 20260503042004 | 38 | 270 | 0.0 | 1.0 | 0.00 | 0.00 | 0.00 | 76 | 994.8 |
| 20260503041004 | 39 | 270 | 0.0 | 1.0 | 0.00 | 0.00 | 0.00 | 76 | 994.7 |
| 20260503040005 | 39 | 268 | 1.0 | 2.0 | 0.00 | 0.00 | 0.00 | 75 | 995.1 |
| 20260503035004 | 40 | 270 | 0.0 | 2.0 | 0.00 | 0.00 | 0.00 | 74 | 995.0 |
| 20260503034006 | 40 | 270 | 1.0 | 3.0 | 0.00 | 0.00 | 0.00 | 74 | 994.9 |
| 20260503033003 | 40 | 272 | 1.0 | 1.0 | 0.00 | 0.00 | 0.00 | 75 | 994.8 |
| 20260503032007 | 40 | 273 | 0.0 | 1.0 | 0.00 | 0.00 | 0.00 | 75 | 994.9 |
| 20260503031004 | 41 | 273 | 0.0 | 1.0 | 0.00 | 0.00 | 0.00 | 75 | 994.9 |
| 20260503025004 | 41 | 273 | 0.0 | 1.0 | 0.00 | 0.00 | 0.00 | 75 | 995.0 |
| 20260503024004 | 41 | 273 | 1.0 | 1.0 | 0.00 | 0.00 | 0.00 | 76 | 995.0 |
| 20260503023005 | 41 | 272 | 0.0 | 2.0 | 0.00 | 0.00 | 0.00 | 75 | 995.3 |
| 20260503022004 | 41 | 277 | 1.0 | 2.0 | 0.00 | 0.00 | 0.00 | 74 | 995.1 |
| 20260503021004 | 41 | 275 | 1.0 | 2.0 | 0.00 | 0.00 | 0.00 | 73 | 995.1 |
| 20260503020005 | 41 | 256 | 1.0 | 2.0 | 0.00 | 0.00 | 0.00 | 72 | 995.5 |
| 20260503015004 | 41 | 277 | 1.0 | 3.0 | 0.00 | 0.00 | 0.00 | 71 | 995.3 |
| 20260503012004 | 42 | 272 | 1.0 | 6.0 | 0.00 | 0.00 | 0.00 | 73 | 995.5 |
| 20260503011005 | 42 | 240 | 3.0 | 6.0 | 0.00 | 0.00 | 0.00 | 73 | 995.3 |
| 20260503010004 | 42 | 259 | 1.0 | 5.0 | 0.00 | 0.00 | 0.00 | 73 | 995.1 |
| 20260503005004 | 42 | 234 | 3.0 | 6.0 | 0.00 | 0.00 | 0.00 | 72 | 995.2 |
| 20260503004006 | 42 | 254 | 2.0 | 5.0 | 0.00 | 0.00 | 0.00 | 72 | 995.1 |
| 20260503002004 | 42 | 243 | 2.0 | 6.0 | 0.00 | 0.00 | 0.00 | 71 | 995.0 |
| 20260503000006 | 42 | 234 | 2.0 | 6.0 | 0.00 | 0.00 | 0.00 | 70 | 994.7 |
| 20260502235004 | 42 | 266 | 1.0 | 5.0 | 0.00 | 0.00 | 0.00 | 70 | 994.7 |
| 20260502234004 | 42 | 233 | 3.0 | 8.0 | 0.00 | 0.00 | 0.00 | 69 | 994.8 |
| 20260502233004 | 42 | 216 | 3.0 | 8.0 | 0.00 | 0.00 | 0.00 | 68 | 994.9 |
| 20260502232005 | 42 | 228 | 3.0 | 7.0 | 0.00 | 0.00 | 0.00 | 68 | 994.8 |
| 20260502231004 | 43 | 213 | 3.0 | 6.0 | 0.00 | 0.00 | 0.00 | 66 | 994.8 |
| 20260502230004 | 43 | 245 | 3.0 | 7.0 | 0.00 | 0.00 | 0.00 | 66 | 994.6 |
| 20260502225004 | 43 | 267 | 1.0 | 7.0 | 0.00 | 0.00 | 0.00 | 67 | 994.6 |
| 20260502223004 | 43 | 238 | 3.0 | 9.0 | 0.00 | 0.00 | 0.00 | 64 | 994.3 |
| 20260502221004 | 43 | 214 | 4.0 | 7.0 | 0.00 | 0.00 | 0.00 | 65 | 994.4 |
| 20260502220003 | 44 | 240 | 3.0 | 10.0 | 0.00 | 0.00 | 0.00 | 65 | 994.7 |
| 20260502215005 | 44 | 236 | 2.0 | 8.0 | 0.00 | 0.00 | 0.00 | 64 | 994.7 |
| 20260502213004 | 44 | 169 | 3.0 | 9.0 | 0.00 | 0.00 | 0.00 | 64 | 994.4 |
| 20260502211003 | 43 | 229 | 4.0 | 10.0 | 0.00 | 0.00 | 0.00 | 66 | 994.6 |
| 20260502204004 | 43 | 231 | 6.0 | 9.0 | 0.00 | 0.00 | 0.00 | 69 | 994.6 |
| 20260502203004 | 43 | 209 | 3.0 | 14.0 | 0.00 | 0.00 | 0.00 | 69 | 994.8 |
| 20260502202004 | 42 | 210 | 5.0 | 14.0 | 0.00 | 0.00 | 0.00 | 69 | 994.7 |